Theta_e
346 337 329 328 327 328 327 330 337 342 343 342 340 337 334 334 332 324 320 320 322 330 335 336 338 339 338 334 329 331 332 332 334 334 336 337 338 339 339 341 343 344 345 344 343 343 343 340 339 339 339 340 340 339 339 339 339 338 338 338 337 334 332 330 330 332 331 330 331 332 332 332 332 333 334 332 327 328 331 329 327 329 330 331 333
346 338 329 329 328 328 327 331 339 343 343 342 341 338 335 334 329 321 321 322 328 334 335 337 339 339 339 338 332 332 335 335 335 336 337 339 342 342 342 342 344 344 344 344 344 343 341 340 340 340 339 339 339 340 339 339 338 338 338 337 335 331 328 330 330 330 328 328 327 329 332 332 332 333 333 330 325 326 329 329 328 329 330 331 332
346 339 328 328 328 328 326 332 340 344 343 343 341 339 336 332 326 321 322 326 334 336 336 338 340 340 340 340 336 334 336 337 338 339 340 341 343 344 343 342 344 344 343 344 344 342 341 340 340 340 339 339 339 339 338 338 338 337 336 334 331 329 330 331 332 331 331 332 331 331 332 332 333 333 333 332 329 328 328 328 328 328 329 329 330
346 340 329 329 328 327 327 334 341 343 343 343 342 339 335 330 324 323 327 332 336 336 338 340 340 341 341 340 337 335 337 339 340 341 341 342 343 343 343 342 343 342 342 343 343 342 341 341 341 340 338 338 338 338 337 336 336 334 332 330 330 331 332 332 332 333 334 335 335 333 331 331 332 333 333 332 331 330 329 328 328 328 329 329 328
346 340 330 328 328 326 328 336 341 344 344 343 342 339 334 328 324 326 332 335 337 337 340 340 341 341 341 339 335 334 336 339 340 341 342 342 342 342 342 342 342 340 341 342 341 341 341 340 339 339 338 338 338 337 336 336 333 329 329 331 332 333 333 334 334 334 335 335 336 335 332 331 332 332 332 332 331 329 330 329 328 328 328 328 328
346 341 334 330 331 330 331 338 342 345 344 343 342 337 331 327 327 331 334 336 337 339 341 340 342 341 339 335 330 330 333 337 338 340 341 341 341 341 341 340 340 339 339 341 341 340 340 339 339 339 338 338 336 335 335 335 330 327 331 333 333 334 334 335 335 336 337 337 338 337 333 332 331 331 332 333 331 329 329 329 328 328 328 328 328
344 342 340 336 334 336 336 340 344 345 344 343 340 336 331 328 330 333 335 337 339 341 341 341 342 340 336 331 328 329 331 335 337 339 340 340 340 340 340 340 339 339 339 339 339 339 339 339 339 338 338 337 336 335 335 332 327 327 332 333 334 334 335 335 335 336 337 337 339 338 334 332 331 331 332 333 331 329 329 329 328 328 328 327 327
343 343 344 339 336 338 339 342 344 344 344 342 340 336 333 331 332 334 336 338 341 342 342 342 341 340 335 330 329 331 332 333 335 337 337 339 339 339 339 339 339 339 339 339 339 339 339 339 339 338 337 336 335 333 331 328 326 329 333 334 334 335 335 335 336 336 337 337 337 337 334 332 331 331 332 333 332 330 329 328 328 328 328 327 327
343 342 345 343 339 338 341 343 344 344 343 342 340 337 334 332 333 335 337 340 342 342 342 342 341 340 335 331 330 333 335 333 334 335 335 337 337 338 339 339 339 339 339 339 339 339 339 340 338 338 337 335 334 331 329 329 327 329 332 334 335 335 335 336 336 336 337 337 336 335 334 332 330 332 333 333 333 330 328 327 327 327 327 327 327
344 344 345 345 342 340 341 343 343 343 343 341 340 338 333 333 334 336 338 341 342 342 342 342 341 338 333 332 334 335 337 336 336 337 337 338 339 339 339 339 339 339 338 338 339 339 339 339 338 338 337 336 335 334 333 333 330 328 330 333 334 335 336 337 337 334 333 334 335 334 332 331 331 331 333 332 330 328 327 328 327 327 327 327 327
344 344 345 343 342 341 341 342 343 342 342 341 340 337 334 334 335 337 340 342 342 342 341 341 339 335 334 335 337 337 337 338 339 339 339 339 339 339 339 339 339 339 338 337 338 338 339 339 339 338 336 336 337 337 336 334 332 330 330 333 335 336 337 337 338 336 332 331 333 334 333 331 331 331 332 331 329 327 328 329 328 328 328 327 327
344 346 346 341 340 339 339 341 342 342 342 341 340 337 334 335 336 338 341 342 342 341 341 339 335 334 336 338 337 338 337 338 339 339 339 338 337 337 337 338 338 339 339 338 339 338 338 339 339 336 335 335 335 336 335 333 332 332 332 333 335 336 337 338 338 336 332 332 334 334 333 332 331 332 332 331 330 328 328 328 328 328 327 327 327
346 348 344 338 339 337 337 340 341 342 341 340 341 338 336 337 338 341 342 342 341 341 337 334 334 336 337 338 338 338 338 338 338 339 339 338 335 334 334 335 335 336 338 338 338 339 339 339 338 335 334 334 334 333 333 333 332 332 332 333 335 336 336 337 337 334 333 334 334 333 331 331 331 332 332 331 330 329 328 328 328 328 327 327 327
347 348 343 338 341 338 336 340 341 341 340 339 339 338 338 339 341 342 341 340 340 337 334 333 336 337 337 339 338 338 338 338 338 339 339 338 334 333 334 335 334 334 335 337 337 339 339 339 338 335 334 334 334 333 333 333 332 330 332 333 335 336 336 337 338 335 332 334 335 333 330 329 331 332 332 332 331 330 328 328 328 328 327 327 327
347 348 343 340 343 341 341 341 340 340 340 339 339 339 340 341 342 341 339 338 336 334 334 336 338 338 338 338 338 338 338 338 339 339 339 337 334 335 335 335 335 334 334 336 337 338 338 339 338 337 335 335 334 332 332 332 331 331 332 333 334 336 337 338 339 334 332 335 335 333 329 328 332 332 332 332 330 330 329 327 327 327 327 327 327
347 346 341 340 343 343 342 341 340 341 341 341 341 341 341 342 341 339 337 335 335 335 335 338 338 338 339 339 339 339 338 338 339 339 338 336 335 336 335 333 334 335 336 336 337 337 338 338 337 337 336 335 333 332 332 332 330 332 332 332 334 337 337 338 339 336 335 335 334 333 328 328 331 331 331 331 330 329 329 327 327 327 327 327 327
346 344 341 341 343 343 341 340 341 342 342 342 342 342 342 342 340 336 333 333 336 338 337 338 338 338 339 340 339 339 338 338 338 338 338 336 335 336 335 334 333 333 334 335 336 337 336 336 336 336 335 334 333 332 332 330 330 332 333 333 335 336 337 338 338 335 335 334 334 332 327 326 330 331 332 331 330 330 329 328 326 326 327 327 327
346 343 343 343 343 342 341 338 338 340 339 341 342 341 341 339 335 331 330 333 338 338 338 337 337 338 339 340 339 338 337 337 337 338 338 337 336 335 335 334 334 333 332 331 332 334 333 331 333 335 334 333 332 332 332 330 330 332 332 334 336 337 337 337 336 334 335 335 335 333 328 325 327 331 332 331 330 330 329 328 326 325 326 326 326
345 343 343 342 342 342 342 338 337 339 336 337 339 339 338 335 332 331 332 335 338 337 337 337 337 339 340 340 338 336 336 337 337 337 337 336 336 336 335 334 334 335 333 329 328 329 329 328 328 331 332 332 331 332 333 330 331 332 332 333 336 336 336 338 336 334 335 336 335 333 328 325 326 330 331 330 330 329 329 328 326 326 326 326 325
343 343 342 340 341 341 341 338 337 337 335 336 338 337 334 331 334 337 337 337 338 336 336 337 338 339 339 338 337 335 335 335 336 335 335 335 336 336 335 335 335 335 333 327 325 325 326 325 324 325 327 330 331 332 332 330 330 331 332 332 334 335 335 338 335 334 335 335 334 331 327 324 327 331 331 330 330 329 329 328 327 326 325 325 325
342 343 344 341 341 341 340 338 336 334 334 335 336 334 331 333 337 339 339 338 338 335 335 337 338 338 337 337 335 336 335 334 334 334 333 334 335 336 335 335 335 335 332 326 324 324 324 323 322 322 323 327 331 332 332 331 330 331 332 332 331 333 335 336 334 333 334 334 333 330 326 325 329 332 331 331 330 329 328 328 328 327 323 322 325
342 344 343 341 341 341 341 339 337 335 334 335 334 334 335 337 339 339 338 337 336 335 335 338 337 337 336 335 335 336 335 334 335 334 333 334 335 335 335 335 335 334 331 326 325 325 324 323 323 322 323 326 328 329 330 329 329 331 332 332 331 332 336 336 333 333 334 334 332 329 326 325 330 332 331 331 330 328 328 329 328 327 324 321 322
341 344 342 340 340 339 341 340 338 336 337 337 335 337 338 338 339 338 337 337 337 336 336 337 336 336 335 335 335 336 335 335 336 335 334 335 335 334 334 335 335 334 331 326 325 326 325 324 323 323 323 325 327 328 329 329 328 328 330 332 330 333 337 335 332 333 333 333 331 329 326 326 330 332 331 330 330 329 328 329 328 328 324 317 316
341 343 342 340 341 340 341 340 339 337 338 338 338 338 339 339 338 336 337 338 338 337 336 336 336 337 335 334 335 336 336 336 337 337 336 335 334 333 334 335 334 335 331 326 326 326 325 324 323 324 325 328 329 331 332 333 330 328 328 331 331 334 337 334 333 334 334 334 331 328 327 328 331 332 330 329 329 329 329 330 329 329 323 313 310
342 343 342 341 340 339 340 340 339 338 338 338 338 338 339 338 337 336 337 338 338 337 337 337 337 336 335 335 335 335 336 337 336 337 337 335 335 334 334 334 335 335 332 329 329 328 328 328 328 326 328 331 332 333 333 333 333 330 329 332 334 335 336 334 333 334 334 334 331 328 326 329 333 332 330 329 329 329 329 330 329 328 323 313 308
342 342 341 341 340 339 339 339 338 338 338 338 337 338 339 339 336 336 338 338 337 337 337 337 335 334 335 336 334 335 337 336 335 335 336 335 336 336 336 336 336 335 333 333 334 333 332 333 333 330 330 332 333 333 332 331 332 332 332 333 334 335 335 334 333 334 333 333 331 328 326 328 332 332 330 330 330 329 329 329 329 329 324 316 314
342 341 341 341 340 339 339 338 337 338 338 338 338 338 339 339 336 336 337 337 338 337 337 336 335 335 335 335 334 335 336 335 334 335 336 336 336 336 336 336 336 335 335 334 335 335 334 333 334 332 331 332 332 332 330 330 331 330 331 332 333 335 334 333 334 334 333 333 331 329 327 327 331 333 332 330 330 329 329 329 328 328 325 322 322
342 341 340 340 339 339 339 340 339 338 338 339 339 338 339 340 338 337 337 336 338 338 336 336 336 335 334 333 333 333 334 335 335 335 335 336 336 334 335 335 335 335 335 334 335 336 334 333 334 333 332 332 331 330 330 329 330 330 330 330 331 333 333 333 333 335 334 333 330 328 327 326 329 332 332 331 330 330 329 328 328 327 326 326 326
342 341 339 338 336 337 339 341 339 338 337 337 339 339 339 339 337 338 338 337 338 337 336 335 334 333 332 333 333 333 333 335 336 335 335 336 335 333 333 334 334 334 334 334 335 335 334 334 334 334 333 331 330 330 329 329 329 330 330 330 330 330 332 332 332 334 335 334 330 328 327 325 327 331 332 332 330 329 329 329 329 327 327 327 326
342 341 338 336 336 336 338 339 338 337 337 337 339 339 338 336 337 339 339 337 336 336 335 335 335 333 332 333 333 332 333 334 334 335 336 336 334 333 333 334 333 333 333 333 333 334 335 335 334 333 333 332 330 330 329 328 330 331 330 329 329 329 331 332 331 333 335 335 332 329 327 325 326 329 332 332 330 330 329 329 329 328 327 327 327
342 340 339 337 336 335 336 337 337 337 337 338 338 337 337 338 338 338 337 335 334 335 335 335 335 334 333 333 333 332 331 334 334 334 335 334 333 333 334 334 334 333 333 333 333 334 333 333 333 333 333 331 330 330 330 329 329 330 330 329 329 329 330 331 331 332 335 336 333 330 327 325 325 327 330 331 330 329 329 329 329 328 327 327 327
341 340 338 337 336 335 335 336 337 338 337 337 337 337 339 339 337 335 334 334 335 335 335 335 334 334 334 334 333 332 331 334 335 334 333 333 332 332 332 332 332 333 333 333 332 333 332 333 333 332 332 332 331 331 330 330 330 330 329 328 328 329 329 330 330 331 333 335 334 331 328 326 325 326 329 330 330 329 329 329 329 329 328 327 327
340 339 339 337 335 335 334 335 336 338 337 336 335 337 339 336 333 334 333 333 334 335 334 335 334 334 334 334 333 332 332 334 335 334 333 332 333 333 332 332 332 332 333 333 333 333 332 332 333 333 332 332 332 332 331 330 330 329 328 328 328 328 329 328 329 330 333 335 335 333 329 326 325 325 327 329 330 329 329 329 328 329 328 327 327
339 340 341 339 336 335 336 335 336 336 336 336 334 336 337 334 333 334 334 334 335 335 336 335 336 335 334 334 334 331 331 333 335 334 334 334 334 335 334 333 333 333 333 333 333 333 331 331 332 333 332 332 332 332 331 330 329 329 328 328 328 328 328 328 329 330 331 334 336 335 331 328 326 325 325 327 328 327 328 327 326 328 329 328 327
339 341 341 339 338 337 337 337 336 336 336 335 335 337 336 335 336 335 335 337 338 337 338 337 336 335 335 335 335 334 333 334 335 334 334 335 334 335 335 334 334 333 333 332 331 332 331 331 333 333 332 332 332 332 331 330 329 329 328 328 328 328 328 328 329 330 331 332 334 335 334 331 329 328 326 325 326 327 328 327 325 327 328 328 327
340 341 341 340 338 339 337 335 335 335 334 334 335 336 335 334 336 336 336 338 338 337 338 338 337 336 336 336 336 336 336 335 335 333 333 335 334 334 335 334 334 334 332 331 331 332 332 332 332 332 332 331 333 332 330 330 329 329 329 329 329 329 329 329 329 330 330 331 334 335 334 333 331 330 328 326 326 327 327 328 326 326 327 326 327
339 340 340 340 339 339 337 334 334 334 333 334 335 336 335 335 336 336 337 339 338 336 337 337 336 336 335 336 336 335 335 336 334 333 333 334 334 334 334 334 334 334 332 331 331 332 333 333 332 332 332 332 333 332 330 329 329 328 330 330 330 329 329 329 329 329 329 330 332 333 332 332 332 331 331 328 327 326 327 328 328 328 327 326 326
339 340 340 339 339 339 338 336 334 332 333 335 337 337 337 336 337 337 338 337 335 335 335 334 333 333 334 335 335 335 335 336 334 332 333 333 334 333 333 334 334 333 331 332 332 333 332 333 333 332 332 331 331 331 330 330 329 329 330 330 330 330 330 330 330 329 329 329 329 331 332 331 331 332 332 330 328 327 327 328 328 328 329 327 327
337 339 340 338 338 337 337 337 335 332 333 335 336 336 338 336 336 336 335 334 333 332 333 332 332 332 332 333 333 333 334 334 333 333 333 333 333 333 332 333 333 332 331 332 333 334 333 332 333 333 332 330 330 331 331 330 329 329 330 330 330 330 329 330 330 330 330 329 329 331 332 331 331 331 331 330 330 328 327 327 328 328 328 328 328
335 338 339 337 335 336 337 337 336 336 336 336 334 335 337 336 336 334 333 332 331 331 331 330 331 331 331 331 331 332 332 333 333 333 334 333 334 333 332 332 332 332 331 331 333 334 334 333 332 332 332 330 330 330 330 330 329 329 330 330 331 330 329 330 330 331 330 330 330 330 331 331 331 331 330 330 330 330 328 327 328 329 329 328 328
336 338 338 334 332 334 337 337 336 338 338 337 337 336 336 335 333 331 331 330 331 331 331 330 331 330 329 329 330 331 331 331 332 332 333 333 333 333 332 332 331 332 332 332 332 333 333 333 332 331 331 331 330 329 330 330 329 330 331 331 330 330 331 330 329 330 330 330 330 330 330 330 330 330 330 330 330 330 329 327 328 330 331 329 328
337 338 337 334 332 333 335 337 336 337 338 338 338 336 334 333 331 330 329 329 329 330 330 330 329 329 329 330 330 330 330 330 331 331 331 331 332 332 332 332 331 331 332 332 331 332 332 333 333 332 331 331 330 329 330 330 329 330 332 333 332 331 331 330 329 330 329 329 329 329 329 329 329 330 330 330 330 330 330 330 329 330 331 330 329
338 337 337 335 333 333 334 337 337 336 337 337 336 334 332 332 331 330 328 328 328 329 329 327 327 328 330 330 330 329 329 328 329 329 329 330 330 330 331 332 331 331 332 332 331 332 332 332 332 332 331 330 330 330 332 332 331 331 332 333 333 333 332 332 330 329 329 330 330 329 328 327 328 329 330 330 329 329 329 329 329 330 329 329 328
337 338 336 334 332 333 334 336 335 335 335 334 333 332 331 331 331 331 330 329 328 328 327 326 327 328 329 329 330 329 328 327 327 327 327 328 329 329 330 331 332 331 331 332 332 332 331 330 331 332 331 330 331 331 332 332 331 331 332 332 332 332 333 333 332 330 330 330 329 328 328 328 327 327 328 329 329 329 329 328 329 329 329 329 328
338 337 335 333 332 334 334 335 334 334 334 333 332 331 331 332 332 331 329 328 327 326 325 325 325 325 326 327 329 329 327 326 326 325 324 326 328 328 329 329 330 331 332 331 331 331 331 330 331 331 330 330 331 330 331 331 330 330 331 331 332 333 333 332 332 331 329 328 328 327 328 329 328 328 328 328 327 328 327 327 328 328 328 328 328
337 334 332 333 334 335 335 333 332 331 331 332 331 330 332 332 332 330 327 325 324 324 325 324 323 322 324 325 326 327 327 327 326 326 326 326 327 328 328 328 328 329 330 330 330 330 330 330 329 329 330 330 330 329 330 331 331 330 329 330 331 332 332 332 332 332 329 327 327 327 327 329 329 329 328 327 327 328 328 328 328 328 328 328 328
336 334 333 335 335 334 334 332 330 329 329 329 327 329 331 331 331 328 325 324 325 325 325 324 323 323 324 325 325 326 327 327 326 326 327 328 327 327 327 327 327 326 326 327 327 327 327 329 329 329 330 330 329 329 330 330 330 330 329 329 330 330 331 331 332 331 331 329 328 326 326 328 329 329 327 327 327 327 328 328 327 327 328 328 328
336 335 334 335 333 332 332 331 329 328 327 325 323 325 327 327 329 327 326 327 326 327 326 324 323 323 323 324 325 326 326 326 326 326 327 327 326 327 326 326 326 325 325 325 326 327 327 328 329 329 329 329 329 328 329 329 329 329 329 329 330 330 330 330 330 329 330 329 328 326 326 327 327 328 328 327 326 326 327 327 327 327 327 327 327
336 335 334 333 331 331 330 328 327 327 324 322 321 321 321 324 328 329 328 328 327 326 325 323 323 323 323 324 325 326 326 325 325 324 325 325 325 325 326 325 324 324 325 325 326 327 328 328 329 330 329 329 329 328 328 328 329 329 329 328 329 329 329 328 328 328 328 328 328 327 326 327 327 327 327 327 326 326 325 325 325 326 326 326 325
335 333 332 332 329 328 326 324 326 326 323 322 321 321 323 326 329 330 328 326 325 324 323 323 324 325 325 324 325 326 325 325 325 325 324 324 325 325 325 324 323 323 324 325 326 326 327 327 328 329 329 328 329 329 329 328 328 328 328 328 328 328 327 327 327 328 328 328 328 327 326 327 327 327 326 325 325 325 324 324 324 323 324 324 322
334 333 331 331 329 325 324 323 324 325 323 322 323 325 327 329 330 329 326 324 323 323 323 324 324 325 325 324 324 325 326 325 324 324 324 324 324 324 323 322 323 323 324 324 324 324 325 326 326 326 327 327 327 328 328 328 328 327 327 328 327 327 327 327 328 327 328 329 328 328 327 325 325 326 325 324 323 323 324 324 322 321 319 318 316
Wind_Speed
21 27 28 24 23 20 19 19 20 22 22 22 22 22 23 22 21 20 20 21 21 21 22 21 18 18 18 18 19 20 20 20 19 17 16 15 15 15 14 15 15 15 14 14 15 15 14 14 14 14 13 13 13 12 13 13 13 12 13 14 13 13 14 14 15 15 14 14 15 18 17 17 17 17 17 17 15 17 19 17 16 15 16 17 15
22 27 28 25 23 20 20 19 21 22 22 22 22 22 23 23 21 21 22 22 21 22 22 20 17 17 17 17 18 18 18 17 17 15 15 15 14 14 14 15 15 14 14 14 13 13 12 13 13 13 13 14 13 13 13 13 12 12 12 11 11 13 14 15 15 15 16 16 17 19 18 18 18 18 18 18 17 17 19 17 15 15 16 17 16
23 25 27 25 22 21 20 20 21 23 23 22 22 22 23 23 22 22 23 22 22 23 22 18 17 16 15 16 16 17 17 16 15 15 14 14 13 13 13 15 14 13 13 13 13 12 12 12 13 13 13 14 13 12 12 12 12 11 10 11 13 15 15 15 15 15 17 19 20 20 19 19 18 19 19 19 19 19 18 18 16 15 17 17 17
23 24 26 24 22 21 20 20 21 22 22 22 22 23 24 23 23 23 23 23 23 23 20 17 16 15 14 14 15 16 16 16 15 14 14 13 13 12 12 14 14 12 12 12 11 11 12 12 12 12 12 13 11 10 10 10 10 9 11 13 15 16 16 14 13 13 16 17 19 19 18 19 18 18 18 18 18 18 18 18 17 16 16 17 18
24 23 26 23 21 20 20 21 21 22 22 22 23 23 24 24 23 23 24 24 24 22 19 17 16 14 13 13 14 15 15 16 16 15 14 13 13 12 12 12 12 11 11 11 10 11 12 11 11 11 12 12 11 11 10 9 8 10 14 16 16 16 15 14 13 11 11 10 11 14 16 18 17 17 17 16 17 17 17 17 17 17 16 17 17
23 23 24 22 20 20 20 21 21 21 21 22 23 24 24 24 23 24 25 24 22 20 18 17 15 13 13 13 13 14 15 16 16 16 14 14 14 13 12 11 10 10 10 10 9 10 10 10 10 11 11 11 10 10 10 8 8 13 17 17 17 16 14 13 12 10 8 5 7 11 13 15 16 16 15 15 16 16 16 16 16 16 16 16 16
22 23 21 21 19 20 22 21 21 21 22 23 24 24 24 24 23 24 25 23 20 19 18 16 14 14 13 13 13 14 15 16 15 15 15 14 14 13 12 11 11 10 10 9 9 10 9 9 10 10 10 10 10 9 9 8 10 15 17 17 17 15 13 11 9 8 7 6 6 9 12 13 15 16 14 14 15 16 16 16 16 15 15 16 16
21 21 19 21 19 20 23 21 21 21 22 23 24 24 24 23 23 25 24 21 19 18 17 16 14 14 13 13 13 14 15 15 14 14 14 13 13 12 12 11 11 11 11 10 9 10 10 10 10 10 10 9 9 9 10 11 13 16 17 17 15 13 11 9 8 6 5 7 9 10 13 13 15 15 13 14 15 16 17 17 16 16 15 16 16
21 20 19 19 19 22 23 21 21 21 22 23 23 23 23 23 24 24 22 20 19 18 17 15 14 13 13 13 13 13 14 14 14 13 13 12 12 11 11 11 11 10 11 10 10 10 10 10 9 9 9 9 10 11 12 12 13 15 15 14 12 11 10 9 9 9 9 10 12 15 15 14 15 14 13 14 14 14 16 17 17 16 16 16 16
21 20 19 18 20 23 23 22 22 22 22 23 23 23 24 24 24 23 21 20 19 18 16 15 14 14 14 13 13 13 13 13 13 13 12 12 12 12 11 11 10 9 10 11 11 10 9 9 9 9 9 10 10 11 11 10 11 12 11 11 10 10 10 10 9 12 14 11 12 15 14 13 14 13 12 13 12 13 16 17 16 16 16 16 16
20 20 19 18 21 23 23 23 23 22 22 23 23 23 24 24 24 23 21 20 19 18 16 15 15 14 14 14 14 13 13 14 13 12 11 11 11 11 11 11 10 9 9 9 10 10 9 8 8 8 8 9 9 8 8 8 9 9 9 9 9 9 9 9 8 11 12 11 12 13 13 13 14 13 13 13 12 14 16 16 16 16 16 16 16
21 21 20 21 23 24 23 23 23 23 23 23 23 24 26 25 24 22 20 19 18 17 16 16 15 15 13 13 13 13 13 14 13 12 11 10 9 9 9 9 10 10 9 9 9 9 8 8 8 7 7 8 7 5 5 5 5 6 7 8 8 8 8 8 9 11 10 11 16 14 14 14 14 13 12 13 13 14 15 15 15 16 16 15 16
22 22 22 23 23 24 24 24 24 23 24 23 23 25 25 24 23 21 20 19 17 17 17 16 16 14 12 12 12 12 13 12 12 13 12 10 8 7 8 8 9 10 10 8 8 9 8 9 8 6 6 6 4 4 4 3 2 4 6 7 7 6 7 9 11 11 9 10 14 12 12 13 12 12 12 12 13 13 14 14 14 14 15 15 15
23 22 24 23 22 25 25 24 25 23 23 23 24 25 24 23 21 20 19 18 17 17 17 16 15 13 12 11 11 12 13 12 11 12 12 10 8 7 8 8 8 9 10 8 8 8 8 9 7 6 6 6 4 4 3 2 2 3 5 7 7 6 6 8 10 10 9 11 13 11 10 12 13 11 11 12 12 12 12 13 14 14 14 15 15
24 22 24 23 20 23 25 25 24 23 23 23 24 23 22 21 19 18 18 17 18 18 17 15 14 13 13 12 12 13 14 12 11 12 11 10 8 7 8 8 8 9 9 7 7 6 7 8 6 5 5 5 4 2 2 2 2 2 4 6 6 6 5 6 8 9 10 12 13 12 11 13 13 11 11 11 11 11 11 12 13 14 14 14 14
24 23 25 24 21 21 22 23 23 23 22 23 22 21 20 18 18 18 18 18 19 18 16 14 14 14 14 13 12 13 14 12 12 12 10 9 8 7 8 8 8 9 8 7 7 6 6 7 5 4 4 4 3 1 1 1 1 1 4 5 5 5 4 6 9 9 9 10 11 10 11 14 13 10 10 9 10 11 11 11 13 13 13 13 14
24 24 25 25 22 20 20 21 22 21 21 21 21 20 18 17 18 18 19 19 18 16 15 14 13 13 13 14 14 12 13 12 11 11 10 9 7 7 8 8 8 7 7 6 6 6 6 6 6 5 4 4 4 3 2 2 1 2 2 4 6 5 6 9 10 9 8 11 12 10 10 11 12 10 9 9 10 10 10 11 11 12 12 13 13
23 22 24 24 22 21 20 21 21 20 19 19 19 17 17 18 19 20 20 19 17 15 14 14 12 12 13 14 13 11 11 11 10 10 9 8 7 7 7 7 6 6 6 5 5 5 5 5 6 6 5 5 5 4 4 3 2 2 3 5 7 6 7 10 11 9 8 13 14 10 8 8 10 11 9 10 10 10 11 11 10 11 12 12 12
21 21 22 22 22 22 21 21 21 20 18 18 17 17 19 19 19 19 18 17 16 15 14 13 11 12 13 13 12 11 10 9 9 9 8 8 7 7 7 6 5 5 5 4 4 4 4 5 5 6 6 6 6 6 5 3 3 3 5 8 8 6 7 7 7 8 6 9 10 6 6 6 10 12 10 10 10 10 10 9 9 11 12 11 12
20 19 19 21 22 23 21 20 20 20 19 19 18 19 20 20 19 17 16 16 15 15 14 12 12 13 14 12 12 11 9 8 8 8 7 6 6 6 6 5 5 4 3 2 2 2 3 4 5 6 7 7 6 6 6 4 4 3 5 9 9 7 5 4 5 9 6 7 6 5 6 6 10 12 11 11 10 9 9 9 9 10 10 10 11
21 17 16 22 24 22 20 19 20 20 21 21 21 20 21 20 18 16 16 15 14 14 13 13 13 14 13 12 12 10 9 9 8 7 6 5 5 6 6 6 5 4 2 2 2 1 1 2 2 3 5 6 6 6 6 5 5 4 5 8 10 8 4 5 5 9 8 8 6 6 6 7 12 12 10 11 9 9 9 9 9 8 9 9 10
21 18 17 21 22 22 21 20 21 22 21 21 22 21 20 19 18 17 16 15 15 14 13 14 15 14 12 12 12 11 10 10 8 7 6 5 5 6 6 6 5 4 3 2 3 2 2 1 1 2 3 5 6 6 5 4 5 5 5 7 10 7 3 2 5 8 8 7 5 6 5 7 12 12 10 10 9 9 9 8 8 7 8 9 9
20 17 18 19 22 24 21 20 22 23 21 21 21 19 19 19 18 17 17 17 16 15 14 15 15 13 13 12 11 10 10 9 8 6 5 5 6 6 7 6 6 5 3 3 3 2 2 2 2 2 2 4 6 7 5 4 3 5 7 7 9 7 4 4 6 9 8 6 5 5 5 7 12 12 10 10 9 9 9 7 7 6 7 8 8
17 16 19 21 22 23 21 22 24 23 21 20 19 19 19 19 19 19 18 17 17 17 16 15 14 13 13 12 11 10 9 9 7 6 5 6 6 7 7 6 6 5 4 4 3 2 0 1 2 2 3 3 3 5 7 8 5 4 7 8 8 6 6 7 6 10 10 7 6 5 5 9 12 12 11 10 9 9 8 7 6 6 7 9 8
15 17 21 21 20 22 23 25 24 24 23 21 20 19 19 19 20 21 18 16 18 18 16 14 13 14 14 12 11 11 9 9 8 6 7 7 7 7 7 6 6 5 5 4 3 3 1 1 1 1 1 3 7 9 11 11 9 6 5 6 8 8 9 9 7 12 12 8 7 5 5 9 11 11 10 10 10 10 8 7 6 5 7 10 10
14 17 19 18 21 24 24 25 25 25 24 22 21 20 18 18 19 20 19 16 17 18 15 14 15 15 13 11 13 12 10 9 8 7 7 8 8 8 8 7 6 5 5 6 6 5 3 4 5 5 6 7 9 11 11 10 8 7 6 7 8 8 10 7 7 12 12 8 7 5 4 9 11 10 10 10 10 10 9 7 7 5 7 11 12
16 16 16 16 22 23 23 26 25 24 24 22 21 21 20 18 18 19 19 17 16 15 15 16 16 15 13 12 14 13 11 11 9 9 8 8 10 10 9 8 8 7 8 8 6 7 7 8 8 8 10 9 9 10 9 11 10 8 8 9 8 7 9 7 7 9 10 9 8 6 5 9 12 11 9 10 10 9 9 8 7 5 6 9 11
18 16 16 19 23 23 25 25 22 23 24 21 19 20 19 17 18 18 17 16 15 15 16 17 16 15 13 14 15 12 12 12 10 10 9 9 11 11 10 8 9 10 10 10 6 7 10 10 8 8 9 8 7 6 6 15 18 13 10 9 9 8 9 9 8 9 9 10 9 7 7 9 11 12 9 9 9 9 8 8 7 6 7 8 8
19 17 17 22 24 26 27 23 22 23 22 21 19 17 17 17 19 17 16 16 15 15 17 16 16 16 14 14 13 10 11 11 11 12 10 10 9 10 10 8 10 12 12 11 9 8 9 9 8 8 8 7 6 4 5 13 17 14 11 9 9 8 7 7 9 10 9 8 9 9 8 9 11 12 10 9 8 8 8 8 7 7 7 6 6
17 18 20 24 23 25 25 22 21 21 20 20 17 16 18 18 18 15 15 16 15 16 17 17 16 15 14 13 12 10 10 10 11 12 10 9 9 8 9 8 8 11 12 11 11 10 9 9 8 8 7 6 6 6 7 10 11 14 13 10 9 10 8 7 7 10 10 8 9 9 8 9 10 12 11 9 8 8 8 7 7 7 6 5 5
16 20 22 24 22 21 21 21 20 18 20 20 18 19 19 17 15 13 14 15 15 16 16 16 15 14 14 13 11 10 10 9 10 10 8 7 7 6 7 7 7 9 11 11 11 11 10 9 8 8 6 6 7 7 9 8 10 13 14 12 9 11 10 8 9 11 13 11 10 10 9 9 10 11 11 10 8 8 8 7 7 7 6 5 5
16 18 23 25 25 23 21 22 21 20 22 21 21 21 17 14 14 13 15 15 13 13 13 13 12 12 14 13 10 11 12 12 10 9 9 7 6 6 7 7 6 8 9 9 8 8 9 8 7 7 6 6 6 5 7 6 8 12 13 13 14 9 10 12 12 11 13 12 11 10 9 9 9 9 10 10 10 9 8 7 7 7 7 7 5
15 16 21 25 26 27 26 25 23 21 22 20 20 18 14 14 15 14 14 13 10 9 9 10 11 10 12 11 10 14 16 15 12 11 10 9 9 9 9 8 7 8 7 6 6 6 7 6 6 6 5 5 4 4 5 5 6 10 10 12 16 8 7 11 10 11 12 12 12 9 9 10 10 9 9 9 10 11 11 9 9 7 7 7 6
16 16 19 20 23 28 27 24 22 21 20 19 18 15 12 13 13 13 12 10 8 7 5 6 7 7 9 10 12 15 15 13 13 13 11 9 10 11 10 9 8 8 7 6 7 7 6 5 4 5 5 4 3 4 4 4 5 8 10 13 13 12 8 10 11 13 12 12 13 10 10 10 10 9 8 9 9 10 11 10 10 8 7 7 6
17 16 18 18 20 26 25 22 21 19 19 19 17 14 12 12 11 11 12 9 6 6 4 3 3 4 7 9 11 11 10 9 10 11 11 10 10 11 10 9 9 8 7 7 7 6 6 6 5 4 4 4 3 4 4 5 7 7 10 9 11 18 10 2 4 11 11 11 13 12 12 11 11 10 9 9 8 9 10 8 9 9 8 7 6
20 18 18 17 18 22 23 23 21 18 19 18 16 14 12 11 11 10 11 8 5 5 5 4 4 5 7 7 7 7 7 9 8 8 10 9 8 9 9 9 8 7 7 7 6 5 4 4 5 4 2 1 3 5 5 6 7 6 7 5 8 18 12 10 12 8 10 11 12 11 12 12 12 11 10 10 8 8 8 6 7 8 7 7 7
21 18 18 17 17 19 20 23 24 22 20 17 15 14 12 11 10 10 9 8 6 6 6 6 5 5 6 6 7 6 6 8 7 6 9 10 8 8 8 8 7 7 7 6 5 4 4 2 2 2 0 1 2 4 4 5 5 4 5 5 4 9 8 8 12 11 9 10 11 10 10 11 10 10 10 10 9 8 8 7 6 6 5 6 8
22 18 18 18 17 18 19 20 20 21 20 18 14 12 11 9 9 10 9 7 6 6 7 7 6 6 5 6 7 6 6 6 5 6 9 9 8 8 8 8 8 7 7 6 5 3 3 3 2 0 0 0 1 2 2 3 3 3 2 3 3 5 5 4 8 11 9 7 8 10 10 10 8 9 10 10 10 10 9 8 7 6 5 5 7
20 17 17 18 18 18 18 15 14 17 19 20 17 13 10 9 9 10 8 7 6 6 7 7 6 7 6 7 7 6 7 5 4 5 7 7 7 7 8 9 8 7 7 6 5 4 3 3 3 2 0 0 1 1 1 0 2 3 2 2 4 4 2 3 6 8 8 7 9 12 10 9 7 7 9 10 10 9 9 9 8 6 5 5 6
18 16 17 17 17 17 18 15 12 13 16 18 18 15 13 11 10 8 7 7 7 7 7 7 7 7 6 7 7 7 7 6 5 4 5 6 6 6 6 7 7 7 7 6 4 4 3 3 3 2 1 1 2 2 1 1 3 5 3 2 3 3 2 2 5 7 8 9 11 12 10 9 6 4 6 9 10 9 9 9 9 7 6 6 6
18 17 17 16 15 16 17 17 14 12 13 15 15 14 13 12 10 9 8 7 8 7 6 7 7 7 7 8 8 8 8 7 6 5 5 4 5 6 6 5 6 6 6 5 4 4 3 2 2 2 2 3 4 3 1 1 3 4 2 2 2 2 3 3 5 8 7 9 11 10 9 8 7 6 7 9 9 10 10 10 9 9 6 5 5
17 18 18 17 16 15 15 15 15 13 13 14 14 12 11 11 10 9 8 7 7 7 6 6 6 6 7 8 8 8 8 8 7 6 6 4 4 5 6 5 5 5 5 5 4 4 4 3 3 3 2 3 5 4 4 4 3 2 1 1 1 2 3 4 5 6 7 10 12 11 9 7 9 10 10 10 10 9 10 9 8 7 3 4 4
18 19 19 20 19 17 16 16 15 13 14 15 13 11 11 11 9 7 6 7 8 8 8 7 6 7 7 7 7 7 8 8 7 7 7 6 4 4 5 5 5 5 6 5 4 4 3 3 4 4 3 3 3 4 5 4 4 3 1 1 1 1 2 4 5 5 7 10 12 15 13 9 9 10 10 10 9 9 8 7 7 6 3 4 5
19 19 20 20 19 19 18 17 14 13 15 15 12 12 13 11 9 7 6 9 11 11 9 7 7 7 6 6 6 6 7 6 7 7 7 6 5 5 5 5 5 7 7 6 5 4 3 4 6 5 5 5 3 3 3 4 5 4 2 1 2 0 0 3 5 5 7 8 11 16 17 13 9 8 9 10 8 7 7 6 6 6 5 4 5
19 18 18 17 18 20 19 17 15 16 17 14 12 14 14 10 10 8 8 11 11 8 7 7 5 5 6 5 5 5 6 6 6 7 7 6 6 5 5 5 4 5 6 5 4 4 3 5 5 4 5 7 6 4 3 3 3 3 2 2 2 0 0 2 4 4 6 8 11 14 15 15 12 8 8 10 8 7 6 6 6 6 5 4 5
19 19 19 20 19 18 18 18 19 20 18 15 15 16 14 12 12 8 8 8 6 5 5 5 4 5 6 5 5 5 5 6 7 7 7 7 6 5 5 5 5 6 5 5 5 5 5 6 3 3 4 5 6 5 4 3 3 2 2 2 1 0 1 2 3 2 5 8 12 14 14 15 14 11 10 10 8 7 7 9 9 7 7 7 7
21 22 23 24 21 19 19 20 21 19 16 15 16 16 15 14 11 5 4 4 4 5 4 4 4 6 7 5 5 5 4 5 6 7 8 8 9 7 6 5 5 7 8 8 7 7 8 7 5 5 6 6 5 4 4 3 4 3 2 1 2 1 1 2 1 2 2 5 10 14 14 14 15 15 13 12 9 8 9 11 11 10 10 9 8
25 23 22 24 23 23 23 21 19 17 15 15 16 15 13 13 9 4 4 6 6 7 5 4 5 6 6 5 5 5 5 5 5 7 9 9 10 8 7 7 6 7 8 9 8 7 8 8 8 9 9 8 7 6 5 4 5 5 3 1 2 1 0 2 2 1 1 2 6 11 12 13 16 17 15 14 13 12 12 13 13 13 14 12 9
25 22 20 23 25 24 23 22 20 17 16 15 15 13 10 11 9 7 7 6 8 8 5 5 6 6 6 5 5 6 5 5 5 6 7 8 9 9 8 8 7 6 8 10 9 9 10 10 11 11 11 11 10 8 8 6 6 6 4 3 2 2 3 3 2 0 1 3 4 5 8 10 13 16 17 17 16 15 15 14 14 14 14 12 10
21 23 24 26 26 25 25 25 21 19 18 15 15 15 12 13 11 9 7 10 9 8 7 7 7 6 5 5 6 6 5 5 6 6 7 7 9 11 9 7 7 8 10 10 10 11 11 12 13 13 13 13 12 11 11 9 9 8 7 5 5 5 5 5 3 2 4 7 6 5 8 8 8 12 17 18 17 15 16 16 16 14 13 11 10
21 23 27 28 28 27 28 27 23 21 20 18 18 17 16 16 12 9 10 12 10 9 9 8 8 7 6 6 6 5 5 5 5 6 6 7 9 11 10 8 8 9 10 11 11 12 11 12 13 14 14 14 14 14 13 12 11 11 10 8 8 8 8 6 4 4 4 6 7 5 8 11 11 12 16 18 18 16 16 16 14 12 12 12 11
Wind_Direction
135 147 149 154 156 158 159 157 159 163 164 163 160 158 158 155 151 149 145 144 143 141 137 132 127 125 123 122 123 121 121 123 123 120 116 111 107 104 102 102 102 101 101 99 95 96 96 92 90 91 92 87 83 87 87 87 87 86 89 89 87 85 83 84 89 92 93 94 92 85 77 70 66 63 59 59 69 72 65 67 77 82 74 67 66
134 146 149 154 156 157 159 156 158 164 165 163 160 158 158 154 151 149 146 146 143 140 137 133 130 129 127 126 129 127 123 123 121 118 115 110 105 103 101 103 104 102 102 102 101 101 97 93 94 94 95 93 88 90 89 87 87 85 86 90 92 90 89 90 92 93 89 85 87 89 81 73 68 64 61 58 62 65 62 63 73 81 74 69 70
133 143 150 154 155 157 157 154 158 164 165 163 160 158 158 154 151 149 147 146 142 140 138 134 132 132 129 128 133 132 127 124 121 119 116 111 106 105 104 106 108 104 102 104 104 102 99 97 97 95 96 97 94 94 94 94 93 89 89 90 94 98 98 95 94 95 94 87 82 85 82 76 69 65 64 62 64 65 63 65 71 80 75 68 73
129 139 150 153 154 157 156 153 158 163 164 162 159 158 158 154 151 149 148 145 142 141 139 136 135 134 129 129 135 137 133 128 125 123 119 115 111 109 107 106 108 106 104 107 104 100 99 98 99 96 98 101 96 94 96 99 99 96 96 97 102 105 104 103 102 104 107 97 81 79 76 74 71 67 66 66 68 68 67 69 71 75 73 68 74
126 140 150 150 155 155 154 155 158 160 162 161 158 159 157 153 151 149 147 145 143 143 141 138 137 133 128 129 132 136 137 135 130 124 119 117 113 110 105 104 107 108 112 111 104 103 102 100 101 99 101 102 99 96 95 99 102 103 104 106 108 108 105 103 104 106 117 110 80 78 75 74 73 68 66 65 68 70 71 72 73 75 75 72 72
127 140 145 147 151 151 154 155 156 158 159 159 157 159 156 153 150 149 148 146 144 143 142 140 136 130 128 129 129 129 132 135 133 128 125 122 117 115 111 112 113 113 120 116 108 111 110 105 104 103 105 104 102 100 97 102 106 109 111 111 106 101 98 94 92 88 97 104 77 86 82 76 76 70 65 66 69 72 74 76 77 80 78 75 73
128 134 138 145 147 150 156 155 154 156 158 158 157 158 155 152 150 150 149 146 144 144 142 140 135 129 129 129 127 126 128 133 135 134 133 127 122 121 120 121 120 120 125 122 116 118 117 112 110 108 110 107 104 104 106 110 110 114 113 108 103 98 96 91 88 78 77 70 57 95 97 83 82 75 67 69 74 73 76 79 80 82 77 76 77
129 133 134 144 150 153 156 153 152 155 157 156 157 156 154 152 151 151 149 146 145 144 142 139 133 130 130 130 128 127 127 129 132 134 133 130 127 126 125 124 125 125 125 127 125 124 123 119 116 113 115 113 108 108 109 109 109 116 114 108 104 99 96 88 77 56 56 54 52 98 103 87 83 77 70 73 79 77 77 81 82 83 80 80 77
133 135 134 143 151 153 154 151 151 153 155 155 156 156 155 153 152 152 148 147 146 144 143 139 135 134 134 132 131 127 125 124 125 128 130 129 127 125 123 123 124 127 130 132 131 128 127 123 121 120 120 116 108 105 103 102 108 116 116 111 107 100 93 82 73 53 51 64 78 100 98 87 86 81 78 76 81 80 78 82 82 83 84 81 77
137 137 136 143 147 151 152 150 151 152 153 155 156 155 155 153 152 152 149 148 147 145 144 141 140 138 137 133 131 128 126 124 121 122 123 124 125 124 120 120 121 127 135 135 132 129 131 128 127 129 125 118 110 103 99 95 103 114 115 113 105 98 90 77 73 67 69 82 97 102 95 90 87 84 83 76 79 82 80 83 84 84 84 82 81
140 137 139 147 146 150 150 148 151 151 154 155 155 156 155 154 154 153 151 150 147 147 146 144 142 141 141 136 135 133 131 129 125 123 121 125 130 131 126 126 126 125 131 136 135 133 135 133 135 143 137 128 120 107 100 93 96 109 112 111 105 95 84 71 58 67 81 97 101 94 87 86 85 85 86 80 79 84 84 85 86 86 85 84 84
141 135 143 150 147 150 149 149 152 153 155 154 154 156 156 156 156 154 152 150 148 149 148 146 144 145 145 142 141 139 140 137 132 130 125 127 130 136 137 135 136 131 132 134 135 137 140 138 144 158 151 137 128 113 110 99 91 102 110 115 110 95 79 65 54 66 84 98 103 101 92 88 88 88 87 83 79 83 86 86 87 87 86 85 84
135 133 148 150 147 151 151 151 152 153 155 154 154 156 158 158 156 155 153 150 149 150 149 149 148 147 148 147 146 141 144 142 137 136 130 126 122 134 139 137 141 143 140 136 141 147 151 150 154 166 162 150 137 124 128 119 105 103 113 122 116 101 83 69 63 77 93 98 105 106 94 89 90 92 89 87 82 82 86 87 87 87 87 89 87
128 135 148 147 145 151 151 152 151 150 154 156 157 157 158 157 155 153 152 152 150 150 150 150 150 148 152 153 149 144 145 145 142 140 134 125 120 130 137 137 139 145 146 145 151 155 159 159 158 162 164 161 153 144 144 138 127 115 119 129 127 110 92 76 68 82 98 100 106 103 95 93 91 93 93 91 87 82 84 87 88 87 88 90 89
128 133 141 143 144 148 149 150 151 152 156 158 159 160 159 156 155 154 153 154 151 151 152 152 153 151 156 157 150 147 147 148 146 146 137 124 126 132 135 140 138 140 146 149 150 157 165 165 158 159 169 171 167 146 136 150 125 125 131 138 139 116 89 63 66 90 105 103 106 102 97 97 95 98 98 93 88 87 84 86 89 88 89 90 88
129 132 140 143 140 142 146 147 152 156 159 161 161 161 160 157 154 154 153 152 151 153 156 155 157 154 154 152 147 148 149 150 148 150 141 129 137 141 138 138 137 138 144 148 149 162 171 171 172 179 191 186 192 194 155 176 129 133 138 146 151 121 86 57 66 99 116 114 114 104 97 101 104 106 102 93 88 91 86 84 87 88 89 88 88
129 134 139 137 134 137 144 150 155 158 161 162 164 163 158 154 151 153 154 153 153 155 155 155 157 151 147 144 145 149 148 149 149 151 146 142 152 152 147 138 135 139 147 158 161 171 181 187 190 199 210 206 215 213 205 211 176 148 140 151 149 121 87 66 70 92 112 120 123 112 101 107 112 107 101 100 94 92 89 86 86 87 89 87 88
129 133 133 130 133 135 142 152 157 157 160 163 162 158 149 147 153 158 158 157 157 156 155 156 153 142 141 142 144 146 144 146 148 151 151 156 165 161 154 145 141 143 150 169 176 181 199 213 204 204 220 228 224 208 208 212 180 145 138 152 143 124 103 87 86 92 104 120 124 115 98 103 115 112 104 103 101 96 93 91 86 84 86 86 87
126 127 130 131 133 137 142 147 153 152 156 161 152 144 140 148 159 161 161 161 161 160 157 154 144 137 140 142 142 142 142 147 150 154 161 168 173 168 163 156 151 151 152 166 185 203 221 236 227 218 227 230 216 201 205 203 187 154 140 151 145 137 121 104 114 117 110 121 125 108 90 105 118 119 113 105 107 102 96 92 85 85 86 86 87
120 124 131 135 135 139 141 145 153 153 155 154 142 142 150 160 162 159 164 167 166 163 156 150 146 143 143 144 142 142 145 153 157 161 167 171 175 177 177 171 169 164 157 160 183 220 235 246 243 230 230 225 213 203 206 207 194 161 150 155 152 154 121 67 120 135 132 133 130 98 92 114 119 120 120 114 112 106 100 94 87 88 89 92 90
126 129 125 128 132 136 139 149 159 160 161 152 145 154 163 167 160 157 168 171 168 163 155 153 152 146 143 146 145 144 151 155 159 163 164 169 174 179 182 182 187 181 173 175 167 182 224 245 234 221 220 215 207 202 208 212 208 190 168 165 169 171 104 54 112 133 137 138 127 98 101 119 120 123 124 121 117 109 104 100 96 90 82 88 91
142 133 116 121 131 142 146 153 163 169 165 156 158 165 166 164 160 163 169 168 166 162 160 158 153 146 148 153 151 152 156 157 158 161 163 170 179 182 183 187 191 190 197 195 167 144 123 84 109 160 176 190 197 197 204 213 212 205 187 181 188 180 109 99 145 143 144 145 131 98 108 126 126 130 128 125 120 111 111 105 102 92 79 85 92
155 133 124 133 145 151 149 154 166 172 165 162 167 166 161 157 157 166 168 163 160 162 164 158 151 149 156 159 155 156 160 162 158 158 166 177 191 195 191 192 193 191 197 203 187 147 108 72 81 117 157 174 189 190 205 227 222 208 201 198 193 182 169 187 171 161 163 161 148 111 113 130 130 135 131 129 122 114 117 112 102 88 79 83 90
155 139 140 146 152 151 153 160 165 169 165 165 168 160 153 150 156 167 167 160 158 163 161 153 152 153 161 165 163 164 166 167 157 152 172 190 203 208 202 198 200 197 195 204 207 194 155 48 82 137 165 174 222 238 249 245 243 229 208 200 195 188 188 198 186 167 170 168 144 114 117 130 133 138 136 136 128 119 123 119 105 86 78 80 85
145 149 148 146 152 155 160 162 162 168 166 162 162 156 150 151 161 168 164 158 158 160 153 154 163 160 163 171 175 176 172 169 166 165 182 196 203 210 211 203 206 210 199 199 210 231 261 294 276 201 225 299 282 280 282 259 240 233 215 219 228 211 193 199 189 156 157 167 146 119 123 133 141 144 137 139 134 127 132 126 110 93 82 83 86
145 154 153 148 149 156 163 160 163 169 163 158 159 158 155 154 162 165 160 155 157 158 153 161 167 163 171 183 184 184 176 169 175 186 189 196 201 206 210 200 202 213 202 191 197 218 224 218 228 232 255 276 275 284 297 281 248 235 233 238 239 215 193 183 169 159 162 170 153 132 127 137 146 146 138 139 137 132 133 131 120 106 92 89 88
152 151 155 155 146 150 159 158 162 165 158 154 158 160 158 154 159 162 159 155 155 156 158 167 168 168 183 189 183 181 175 170 181 198 196 200 212 209 205 202 202 210 209 201 200 217 220 222 227 232 246 258 279 292 297 302 289 259 251 237 221 215 202 168 144 165 179 175 157 144 134 139 145 145 144 141 140 140 135 135 127 112 108 100 89
149 147 160 164 155 155 157 156 161 165 159 154 156 160 159 155 157 159 161 159 152 155 162 168 171 178 190 186 180 178 176 173 182 200 204 213 222 214 209 212 211 214 214 208 212 229 224 228 236 235 241 247 271 275 274 306 303 278 265 242 214 213 209 192 175 172 179 171 153 146 140 138 143 146 152 146 142 145 139 136 130 114 120 119 95
147 149 164 162 161 163 157 152 158 163 162 157 157 159 160 159 157 157 161 159 156 162 164 165 173 183 188 185 182 180 185 186 189 199 205 215 220 214 216 218 217 219 220 216 220 237 233 236 246 241 241 241 260 286 278 292 295 285 273 247 222 211 188 178 185 175 174 176 155 147 144 137 142 149 154 152 146 145 142 138 131 121 125 133 110
145 143 154 155 158 164 155 146 151 158 158 160 161 160 162 160 158 158 159 159 163 167 164 165 174 181 182 184 182 182 198 199 198 201 201 208 204 200 212 217 215 214 217 220 226 237 238 242 248 246 254 258 266 295 291 261 265 286 282 256 228 211 181 154 181 177 166 176 165 147 143 138 141 152 156 154 150 147 146 143 135 130 134 142 136
143 136 143 150 154 154 146 145 151 155 160 168 169 163 160 157 160 161 160 162 164 164 164 167 170 176 180 183 186 193 207 205 205 209 200 211 208 192 213 216 206 208 212 215 224 234 237 243 246 245 252 268 267 276 291 263 248 275 284 281 250 212 191 182 202 186 164 172 172 151 143 140 140 151 156 155 152 149 149 153 148 140 141 144 153
143 133 138 147 149 146 147 156 158 156 163 170 165 160 156 157 163 163 165 166 164 163 163 166 166 169 174 177 185 193 203 206 210 210 195 199 199 194 227 231 209 209 212 209 216 226 232 243 252 254 252 275 281 268 285 267 251 264 270 294 285 232 183 193 212 191 166 170 171 155 144 138 139 149 156 160 156 151 153 161 159 150 147 145 156
137 131 139 148 149 147 153 164 164 158 162 165 159 157 156 160 164 164 168 165 165 168 157 161 166 166 170 173 184 188 192 196 198 201 194 186 180 183 210 229 228 222 211 200 209 220 229 241 257 267 265 286 288 263 269 251 263 276 277 309 306 276 189 190 198 178 166 163 161 157 151 140 140 147 152 165 165 158 160 163 164 163 158 155 159
131 137 143 145 142 141 149 162 164 159 160 160 156 155 155 156 158 161 162 154 158 163 152 159 163 166 172 175 184 186 185 184 188 196 191 185 185 181 185 200 215 219 213 210 214 223 230 230 254 274 268 281 281 266 273 265 290 309 314 320 315 302 255 199 174 162 163 157 153 149 148 142 138 146 150 164 170 164 165 168 169 167 163 162 162
135 146 149 145 139 139 145 153 158 158 156 153 148 148 154 151 150 155 152 146 153 158 160 162 148 158 171 176 181 179 175 171 182 191 185 189 193 179 177 190 199 201 210 223 218 219 222 212 223 247 256 274 300 305 304 313 320 324 321 315 317 325 323 202 137 147 151 146 152 151 150 151 148 153 155 159 168 168 170 172 168 166 168 170 165
148 154 151 146 141 140 144 149 153 155 151 147 147 150 153 147 145 150 144 137 143 154 163 158 149 159 165 172 170 165 165 165 179 187 175 180 188 180 182 191 193 194 210 224 215 203 206 213 229 236 245 282 332 334 331 332 327 326 343 350 321 332 355 26 32 85 132 129 140 154 159 164 163 166 165 157 161 167 170 166 162 168 176 181 168
161 156 150 148 143 140 144 151 152 152 152 150 153 149 140 139 138 137 134 133 139 144 149 145 136 139 146 149 151 156 160 164 177 178 164 167 182 191 192 186 185 195 207 213 207 190 184 201 253 270 268 104 30 356 350 342 325 321 355 25 345 331 352 22 46 83 123 124 133 152 165 173 174 183 181 164 156 157 165 165 162 163 163 170 164
168 152 149 150 144 140 144 149 146 144 146 145 148 140 129 131 124 120 126 131 132 130 133 134 124 119 127 132 133 134 140 157 167 160 162 168 181 191 187 181 184 195 200 197 197 193 188 185 184 292 317 106 40 356 350 352 337 321 331 32 5 335 341 15 74 100 127 136 134 138 152 172 175 185 188 174 163 157 159 163 166 162 153 153 157
169 150 151 149 142 141 143 145 140 137 138 138 141 133 120 114 108 112 120 120 116 117 123 125 120 123 131 126 119 116 121 132 138 147 158 163 179 191 185 184 191 197 193 188 184 187 198 175 162 174 246 343 68 75 9 158 84 41 16 17 353 334 341 17 54 89 120 123 116 123 145 174 177 184 189 185 178 168 160 161 164 161 159 160 157
165 153 151 145 138 137 137 135 135 134 132 130 131 129 123 117 116 121 122 120 117 117 123 122 120 123 129 125 119 116 114 119 126 137 150 160 179 188 182 186 194 192 181 177 172 182 199 171 153 165 160 129 112 114 188 223 83 62 30 325 336 356 29 20 44 79 110 114 118 132 149 163 168 182 185 186 187 181 173 169 166 164 173 177 173
159 155 148 141 140 137 130 127 127 125 119 116 115 116 118 120 123 123 122 121 120 122 117 113 116 114 115 115 114 116 115 118 122 121 130 152 173 170 170 177 181 179 167 162 169 181 186 159 118 116 124 112 104 105 108 80 61 61 42 296 304 39 50 31 58 79 89 94 109 133 145 145 154 165 168 177 186 189 188 187 181 178 178 175 179
152 155 144 137 140 137 126 122 122 119 113 112 110 108 116 123 122 122 128 128 130 137 122 108 111 107 104 106 109 114 115 115 115 112 108 105 128 147 159 166 157 157 155 151 154 162 166 154 128 115 112 100 100 112 104 88 91 104 123 258 326 90 88 65 78 89 86 87 96 114 125 123 139 154 168 180 183 182 188 194 193 188 166 138 168
145 152 145 138 139 137 128 121 121 122 120 119 114 112 122 125 115 117 133 131 124 122 117 114 115 112 109 107 109 111 115 119 116 114 109 100 106 117 136 154 152 151 151 144 141 149 157 152 148 128 115 111 101 128 136 120 131 140 151 171 46 78 114 95 87 82 86 93 99 109 112 108 125 143 158 169 164 158 170 179 178 179 160 147 172
143 149 146 140 136 133 125 120 122 125 126 124 120 121 126 118 98 94 109 112 107 103 108 115 114 117 114 105 105 104 108 111 107 109 111 112 117 113 119 141 155 156 149 144 151 160 149 134 138 127 129 139 114 129 157 133 134 148 146 90 66 351 212 111 101 75 75 84 93 108 113 111 118 133 138 140 137 141 157 166 165 162 158 172 179
144 142 136 126 126 126 122 124 123 125 128 129 129 129 124 103 81 80 89 97 101 104 115 119 120 125 117 106 104 103 105 104 97 96 98 105 110 111 121 122 122 135 138 139 142 146 132 122 132 135 140 145 134 143 174 144 130 151 158 125 105 151 300 121 118 73 64 74 80 96 107 113 119 120 112 114 122 132 133 131 131 127 126 142 155
136 131 127 121 125 128 127 129 125 126 131 130 131 130 122 97 76 70 79 91 109 131 133 129 128 125 118 113 109 106 109 105 99 94 90 92 93 94 109 109 100 101 103 101 98 98 104 104 111 119 122 133 137 144 156 155 150 159 199 192 165 155 53 115 132 69 58 68 78 91 102 111 120 115 103 105 116 119 112 111 113 113 112 112 124
127 125 131 132 139 138 131 129 127 130 135 135 136 133 122 102 84 79 103 140 167 147 138 134 118 111 112 113 112 113 113 108 108 105 95 88 88 87 93 103 109 106 93 85 84 79 85 91 88 90 102 113 123 141 151 151 154 173 235 233 159 154 80 65 80 105 82 60 77 90 96 106 116 117 111 108 110 109 106 105 106 113 117 112 114
125 125 132 136 141 137 129 128 130 136 140 141 139 129 114 103 110 168 206 204 174 137 134 131 115 117 125 134 135 130 122 116 117 114 109 103 95 87 87 91 97 111 104 92 87 82 83 90 92 94 98 99 101 125 143 132 138 165 204 172 145 173 12 354 18 82 161 96 89 88 92 102 109 112 109 104 103 102 103 105 105 111 114 110 106
125 126 130 134 137 135 133 133 137 145 145 141 134 124 119 126 155 216 225 179 150 143 148 138 135 142 147 150 139 126 115 108 107 105 109 114 107 96 94 86 73 91 106 98 90 87 85 83 87 93 96 94 92 100 109 104 118 144 154 134 102 51 63 67 78 149 34 99 107 90 103 104 99 108 111 104 102 99 98 99 97 102 108 105 101
119 125 130 137 139 142 146 142 141 146 145 145 139 137 149 162 183 221 194 150 146 160 162 152 155 161 157 143 125 123 119 106 99 95 93 100 104 103 103 93 74 79 94 101 100 95 89 83 83 88 90 90 88 87 92 95 103 115 118 111 92 80 83 85 103 103 56 85 113 136 137 126 110 120 120 111 109 104 96 93 91 95 102 102 98
126 133 136 142 144 149 155 148 145 148 151 157 154 154 170 178 188 201 173 153 159 169 164 164 168 167 160 148 141 138 125 108 97 96 93 87 92 99 102 100 91 87 93 104 106 101 97 92 89 88 88 88 86 85 90 96 98 97 99 100 92 90 96 103 111 114 103 104 116 145 144 130 127 138 138 128 121 117 107 101 98 93 94 97 96